Preview of NWS' New Version of Forecast
This preview is not operational and should not be used for support decisions.
Latest weather observations around

Emigrant Gap, Blue Canyon Nyack Airport (KBLU)

Using English Units (Switch to International System of Units)
Date/ Time (PST) Wind (mph) Vis. (mi) Weather Sky Cond. Temp (°F) Rel. Humidity Wind Chill (°F) Heat Index (°F) Pressure Precip. (in)
Air Dwpt 6 hour Altimeter (inHg) Sea level (inHg) 1 hr 3 hr 6 hr
Max Min
Dec 17 10:52 S 6 10 Clear CLR 37 31     78% 32   30.18 30.17      
Dec 17 09:52 Calm 10 Clear CLR 35 33     92%     30.18 30.18     0
Dec 17 08:52 E 5 10 Clear CLR 32 31     96% 27   30.15 30.16      
Dec 17 07:52 E 3 10 Clear CLR 31 29     92% 28   30.13 30.16      
Dec 17 07:07 E 3 10 Cloudy SCT002 BKN040 OVC075 31 29     92% 28   30.13        
Dec 17 06:52 3 7 Cloudy FEW004 BKN027 OVC070 31 30     96% 28   30.13 30.14 0 0  
Dec 17 06:46 3 2 Light Snow and Fog/Mist FEW004 FEW011 OVC020 32 30     93% 29   30.13   0    
Dec 17 06:42 Calm 1.25 Light Snow and Fog/Mist FEW004 OVC012 32 30     92%     30.13   0    
Dec 17 05:52 Calm 0.75 Light Snow and Fog/Mist VV006 32 30     92%     30.12 30.11 0    
Dec 17 04:52 WNW 3 0.5 Snow and Fog VV005 32 30     92% 29   30.09 30.07 0    
Dec 17 04:35 WNW 5 0.5 Snow and Fog VV004 32 30     92% 27   30.08   0    
Dec 17 04:27 W 8 0.25 Snow and Fog VV003 33 31     92% 26   30.08   0    
Dec 17 03:52 S 13 0.5 Rain and Fog VV003 36 34     92% 27   30.06 30.01 0   0
Dec 17 03:45 S 9 0.75 Rain and Fog/Mist VV003 36 34     92% 29   30.06   0    
Dec 17 03:22 S 10 1.5 Rain and Fog/Mist OVC003 36 34     92% 29   30.07   0    
Dec 17 02:52 S 14 0.5 Rain and Fog VV002 37 35     92% 28   30.05 30.01 0    
Dec 17 02:47 S 14 0.5 Rain and Fog BKN002 OVC007 37 36     93% 29   30.05   0    
Dec 17 02:38 S 11 1.25 Rain and Fog/Mist BKN004 OVC009 37 35     92% 29   30.04   0    
Dec 17 02:32 SSE 13 2.5 Rain and Fog/Mist BKN004 OVC007 37 35     92% 29   30.04   0    
Dec 17 02:10 SSE 8 5 Rain and Fog/Mist BKN009 OVC014 37 35     92% 31   30.04   0    
Dec 17 02:03 SSE 8 8 Unknown Precipitation FEW006 BKN012 OVC016 37 35     92% 31   30.03   0    
Dec 17 01:52 SE 9 4 Unknown Precipitation and Fog/Mist BKN011 OVC017 37 35     92% 30   30.03 29.98 0    
Dec 17 01:42 SE 8 5 Light Rain and Fog/Mist SCT009 OVC017 37 35     92% 31   30.03   0    
Dec 17 01:17 SE 9 7 Light Rain BKN013 BKN018 OVC023 37 35     92% 30   30.03   0    
Dec 17 00:52 SE 8 10 Unknown Precipitation OVC025 37 35     92% 31   30.03 29.97 0 0  
Dec 16 23:52 SE 8 10 Cloudy BKN027 OVC080 37 35     92% 31   30.04 29.99 0    
Dec 16 23:25 ESE 9 5 Unknown Precipitation and Fog/Mist SCT006 BKN029 OVC075 37 35     92% 30   30.05   0    
Dec 16 23:15 ESE 8 7 Light Rain BKN004 BKN023 OVC028 37 35     92% 31   30.06   0    
Dec 16 22:52 SE 9 6 Light Rain and Fog/Mist OVC005 36 34     92% 29   30.07 30.03 0    
Dec 16 22:01 SSE 10 4 Rain and Fog/Mist OVC005 35 33     92% 27   30.09   0    
Dec 16 21:52 SSE 15 3 Rain and Fog/Mist OVC003 36 33     89% 27   30.1 30.07 0   0
Dec 16 20:52 S 18 3 Rain and Fog/Mist OVC004 36 34     92% 26   30.12 30.09 0    
Dec 16 20:41 SSE 14 4 Rain and Fog/Mist BKN004 OVC009 36 33     89% 27   30.12   0    
Dec 16 20:34   4 Rain and Fog/Mist BKN006 OVC011 36 33     89%     30.12   0    
Dec 16 20:20 SSE 13 5 Light Rain and Fog/Mist SCT006 OVC011 35 33     92% 26   30.11   0    
Dec 16 20:11 SSE 10 5 Rain and Fog/Mist OVC010 35 33     92% 27   30.11   0    
Dec 16 19:52 SSE 13 4 Light Snow and Fog/Mist BKN009 OVC014 35 32     88% 26   30.1 30.07 0    
Dec 16 19:33 SE 9 5 Light Rain and Fog/Mist OVC014 36 33     89% 29   30.1   0    
Dec 16 18:52 SSE 11 5 Light Snow and Fog/Mist OVC020 36 32     85% 28   30.1 30.06 0 0  
Dec 16 18:37 S 15 9 Light Snow OVC026 38 30     73% 29   30.1   0    
Dec 16 18:05 S 10 10 Light Rain FEW020 SCT026 OVC033 38 31     76% 31   30.09   0    
Dec 16 17:52 SSE 9 10 Light Rain SCT022 BKN028 OVC037 40 29     65% 34   30.09 30.03 0    
Dec 16 16:52 SSE 13 10 Cloudy BKN018 OVC070 42 27     55% 35   30.09 30.04      
Dec 16 16:45 SSE 11 10 Cloudy BKN020 OVC070 42 27     55% 36   30.09        
Dec 16 15:52 S 13 10 Cloudy SCT065 OVC080 43 23     45% 36   30.09 30.03      
Dec 16 14:52 SSE 10 10 Cloudy FEW060 OVC075 43 20     39% 37   30.06 30      
Dec 16 13:52 SSE 10 10 Cloudy OVC080 43 22     43% 37   30.07 30.01      
Dec 16 12:52 S 17 10 Cloudy OVC095 45 20     37% 38   30.1 30.03      
Dec 16 11:52 SSE 9 10 Cloudy OVC100 44 20     38% 39   30.11 30.05      
Dec 16 10:52 SSE 14 10 Cloudy OVC100 44 20     38% 37   30.12 30.05      
Dec 16 09:52 SSE 7 10 Cloudy OVC100 42 18     37% 38   30.14 30.08      
Dec 16 08:52 S 9 10 Mostly Clear FEW100 42 15     33% 37   30.13 30.07      
Dec 16 07:52 S 11 10 Clear CLR 42 16     34% 36   30.12 30.05      
Dec 16 06:52 S 13 10 Clear CLR 42 15     33% 35   30.12 30.06      
Dec 16 05:52 SE 7 10 Clear CLR 41 17     38% 36   30.12 30.07      
Dec 16 04:52 5 10 Clear CLR 40 18     41% 37   30.12 30.07      
Dec 16 03:52 SSE 8 10 Clear CLR 40 19     43% 34   30.15 30.09      
Dec 16 02:52 SSE 7 10 Clear CLR 40 19     43% 35   30.15 30.09      
Dec 16 01:52 SE 7 10 Clear CLR 40 19     43% 35     30.08      
Dec 16 00:52 SE 6 10 Clear   40 16     37% 36   30.16 30.09      
Dec 15 23:52 S 9 10 Clear CLR 41 14     33% 35   30.16 30.09      
Dec 15 22:52 SSE 11 10 Clear CLR 43 12     28% 37   30.15 30.07      
Dec 15 21:52 SSE 8 10 Clear CLR 43 13     29% 38   30.14 30.07      
Dec 15 20:52 SSE 9 10 Clear CLR 43 14     30% 38   30.13 30.07      
Dec 15 19:52 SSE 8 10 Clear CLR 43 16     33% 38   30.15 30.1      
Dec 15 18:52 SE 9 10 Clear CLR 42 19     39% 37   30.14 30.09      
Dec 15 17:52 ESE 5 10 Clear   41 24     51% 38   30.12 30.07      
Dec 15 15:52 S 6 10 Clear CLR 44 21     40% 41   30.11 30.05      
Dec 15 13:52 SSE 11 10 Clear CLR 47 18     31% 42   30.1 30.03      
Dec 15 12:52 SE 8 10 Clear CLR 46 19     34% 42   30.12 30.06      
Dec 15 11:52 SSE 9 10 Clear CLR 47 20     34% 43   30.14 30.08      
Dec 15 10:52 SSE 8 10 Clear CLR 46 19     34% 42   30.16 30.1      
Dec 15 09:52 6 10 Clear CLR 45 22     40% 42   30.15 30.1      
Dec 15 08:52 SSE 8 10 Clear CLR 42 23     46% 37   30.14 30.1      
Dec 15 07:52 SE 5 10 Mostly Clear FEW060 39 22     50% 36   30.13 30.09      
Dec 15 06:52 SE 6 10 Cloudy OVC060 40 23     50% 36   30.12 30.09      
Dec 15 05:52 SSE 7 10 Cloudy OVC050 40 23     50% 35   30.11 30.08      
Dec 15 04:52 SSE 9 10 Cloudy SCT047 OVC060 41 22     46% 35   30.11 30.07      
Dec 15 03:52 7 10 Mostly Cloudy FEW044 BKN055 40 23     50% 35   30.12 30.08     0
Dec 15 02:52 SSE 10 10 Cloudy BKN037 OVC055 40 28     62% 33   30.13 30.09      
Dec 15 01:52 SSE 7 10 Mostly Cloudy SCT024 SCT030 BKN049 39 30     70% 34   30.14 30.11      
Dec 15 01:40 SE 7 10 Cloudy BKN024 OVC050 38 33     82% 33   30.15        
Dec 15 00:52 SE 6 10 Cloudy FEW009 BKN045 OVC055 37 34     89% 32   30.15 30.13 0 0  
Dec 15 00:19 SE 6 10 Cloudy FEW009 BKN036 OVC055 37 34     89% 32   30.15   0    
Dec 14 23:52 SE 7 10 Cloudy OVC039 37 34     89% 32   30.16 30.12 0    
Dec 14 22:52 SE 5 10 Cloudy SCT011 BKN038 OVC045 37 34     89% 33   30.17 30.11 0    
Dec 14 22:22 5 10 Cloudy SCT010 BKN030 OVC048 37 34     89% 33   30.16   0    
Dec 14 21:52 SE 6 10 Cloudy BKN008 OVC015 37 35     92% 32   30.16 30.1      
Dec 14 20:52 S 8 10 Cloudy BKN007 OVC016 37 34     89% 31   30.14 30.08      
Dec 14 19:52 SSE 9 10 Cloudy OVC009 38 34     85% 31   30.14 30.07      
Dec 14 19:50 SSE 7 10 Cloudy OVC009 37 34     87% 32   30.14        
Dec 14 18:16 S 14 10 Cloudy BKN013 BKN019 OVC047 38 33     82% 30   30.12        
Dec 14 17:52 S 14 10 Cloudy FEW017 BKN055 OVC070 38 32     79% 30   30.11 30.04      
Dec 14 17:38 S 13 10 Mostly Cloudy SCT019 SCT047 BKN070 38 32     79% 30   30.11        
Dec 14 17:31 SSE 14 10 Cloudy BKN019 BKN050 OVC085 38 32     79% 30   30.11        
Dec 14 16:52 SSE 11 10 Cloudy BKN055 BKN070 OVC085 39 32     76% 32   30.12 30.06      
Dec 14 16:42 SSE 10 10 Cloudy FEW020 BKN055 OVC070 39 32     76% 32   30.12        
Dec 14 16:18 S 11 10 Cloudy BKN019 OVC075 39 33     79% 32   30.13        
Dec 14 15:52 SSE 16 10 Partly Cloudy FEW021 SCT080 40 32     73% 31   30.11 30.05      
Dec 14 14:52 SSE 8 10 Clear CLR 40 30     67% 34   30.11 30.05      
Dec 14 13:52 S 11 10 Cloudy FEW022 OVC110 38 28     67% 30   30.12 30.06      
Dec 14 12:52   10 Cloudy OVC110 39 25     57%     30.13 30.06      
Dec 14 11:52 S 15 10 Cloudy OVC100 42 21     43% 35   30.13 30.05      
Dec 14 10:52 S 15 10 Mostly Cloudy BKN100 49 11     21% 43   30.08 29.97      
Dec 14 09:52 SSE 16 10 Cloudy OVC100 47 10     22% 40   30.11 30      
Dec 14 08:52 SSE 14 10 Mostly Cloudy BKN110 48 8     19% 42   30.11 30.01      
Dec 14 07:52 SSE 13 10 Partly Cloudy SCT120 47 7     19% 41   30.12 30.02      
Dec 14 06:52 S 10 10 Clear CLR 46 6     19% 41   30.14 30.05      
Dec 14 05:52 SSE 11 10 Clear CLR 47 6     18% 42   30.14 30.04      
Dec 14 04:52 SSE 10 10 Mostly Cloudy BKN095 BKN120 47 6     18% 42   30.15 30.04      
Dec 14 03:52 SSE 13 10 Clear CLR 46 9     22% 40   30.17 30.05      
Dec 14 02:52 S 6 10 Clear CLR 45 9     23% 42   30.2 30.09      
Dec 14 01:52 SSE 7 10 Clear CLR 48 6     18% 45   30.2        
Notice The following observation data may not be complete
Dec 13 23:52 SSE 8 10 Clear CLR   11      %     30.22 30.1      
Dec 13 22:52 SSE 8 10 Clear CLR 49 12     22% 45   30.22 30.1      
Dec 13 21:52 SE 5 10 Clear CLR 48 15     26% 46   30.23        
Dec 13 20:52 ESE 5 10 Clear CLR 47 18     31% 45   30.24        
Dec 13 19:52 ESE 3 10 Clear CLR 47 19     33% 46   30.26 30.17      
Dec 13 18:52 SSE 6 10 Clear CLR 46 23     40% 43   30.25 30.17      
Dec 13 17:52 SSE 6 10 Clear CLR 49 19     30% 46   30.26 30.16      
Dec 13 16:52 SE 5 10 Clear CLR 51 22     32%     30.25 30.15      
Dec 13 15:52 SE 5 10 Clear CLR 53 26     35%     30.26 30.16      
Dec 13 14:52 S 7 10 Clear CLR 53 23     31%     30.27 30.17      
Dec 13 13:52 5 10 Clear CLR 55 23     29%     30.27 30.16      
Dec 13 12:52 6 10 Clear CLR 55 21     26%     30.29 30.18      
Dec 13 11:52 5 10 Clear CLR 54 19     25%     30.31 30.2      
Dec 13 10:52 5 10 Clear CLR 53 16     23%     30.34 30.23      
Dec 13 09:52 Calm 10 Clear CLR 52 10     18%     30.34 30.24      
Dec 13 08:52 Calm 10 Clear CLR 50 4     15%     30.34        
Dec 13 07:52 Calm 10 Clear CLR 47 3     16%     30.32        
Dec 13 06:52 Calm 10 Clear CLR 46 1     15%     30.32        
Dec 13 05:52 Calm 10 Clear CLR 46 -1     14%     30.31        
Notice The following observation data may not be complete
Dec 13 04:52 Calm 10 Clear CLR   -1      %     30.31 30.22      
Dec 13 03:52 E 3 10 Clear CLR 43 5     20% 41   30.31        
Dec 13 02:52 E 3 10 Clear CLR 42 6     22% 40   30.31        
Notice The following observation data may not be complete
Dec 13 01:52 Calm 10 Clear CLR   6      %     30.31 30.22      
Dec 13 00:52 Calm 10 Clear CLR 42 6     22%     30.3 30.22      
Dec 12 23:52 Calm 10 Clear CLR 44 4     19%     30.31 30.22      
Dec 12 22:52 NE 3 10 Clear CLR 45 5     19% 44   30.31 30.22      
Dec 12 21:52 N 3 10 Clear CLR 45 6     20% 44   30.31 30.23      
Dec 12 20:52 Calm 10 Clear CLR 46 5     18%     30.3 30.22      
Dec 12 19:52 Calm 10 Clear CLR 46 2     16%     30.3 30.24      
Dec 12 18:52 Calm 10 Mostly Clear FEW120 46 3     17%     30.29 30.24      
Dec 12 17:52 5 10 Mostly Clear FEW120 47 1     15% 45   30.27 30.22      
Dec 12 16:52 ENE 5 10 Clear CLR 48        % 46   30.26 30.19      
Dec 12 15:52 3 10 Clear CLR 49 8     19% 48   30.25 30.18      
Dec 12 14:52 E 3 10 Clear CLR 52 8     17%     30.26 30.19      
Dec 12 13:52 3 10 Clear CLR 52 8     17%     30.27 30.2      
Dec 12 12:52 7 10 Clear CLR 51 6     16%     30.27 30.2      
Dec 12 11:52 NE 9 10 Clear CLR 50 0     12%     30.27 30.19      
Dec 12 10:52 NNE 11 10 Clear CLR 48 -1     13% 43   30.29 30.22      
Dec 12 09:52 NE 10 10 Clear CLR 46 5     18% 41   30.3        
Dec 12 08:52 NNE 11 10 Clear CLR 44 4     19% 38   30.27        
Dec 12 07:52 NNE 8 10 Clear CLR 39 19     44% 33   30.27 30.24      
Dec 12 06:52 NE 3 10 Clear CLR 37 30     76% 35   30.27        
Dec 12 05:52 N 3 10 Clear CLR 37 29     72% 35   30.25 30.21      
Dec 12 05:04 NW 6 10 Mostly Cloudy FEW023 SCT028 BKN035 39 31     72% 35   30.25        
Dec 12 04:52 Calm 10 Mostly Cloudy BKN025 BKN035 39 32     76%     30.24 30.19      
Dec 12 03:52 Calm 10 Cloudy BKN024 OVC033 40 32     73%     30.22 30.16      
Dec 12 03:36 NNW 5 10 Mostly Cloudy BKN022 BKN030 39 33     79% 36   30.21        
Dec 12 02:52 Calm 10 Mostly Cloudy SCT023 BKN037 38 32     79%     30.21 30.15      
Dec 12 01:52 Calm 8 Mostly Cloudy BKN018 BKN037 36 31     82%     30.2 30.12      
Dec 12 00:52 Calm 8 Mostly Cloudy BKN017 37 32     82%     30.2 30.13      
Dec 11 23:52 W 3 9 Cloudy OVC016 39 32     76% 37   30.21 30.14      
Dec 11 22:52 S 3 10 Mostly Cloudy BKN020 41 31     67% 39   30.18 30.1      
Dec 11 21:52 Calm 10 Clear CLR 42 31     64%     30.18 30.08      
Dec 11 20:52 Calm 10 Clear CLR 41 31     67%     30.19 30.12      
Dec 11 19:52 Calm 10 Clear CLR 39 30     70%     30.19 30.15      
Dec 11 18:52 Calm 10 Clear CLR 44 28     53%     30.17 30.13      
Dec 11 17:52 Calm 10 Clear CLR 44 30     58%     30.16 30.11      
Dec 11 16:52 NE 5 10 Clear CLR 42 34     73% 39   30.17 30.13      
Dec 11 15:52 W 7 10 Clear CLR 43 35     73% 39   30.18 30.14      
Dec 11 14:52 W 6 10 Clear CLR 48 32     54% 45   30.14 30.08      
Dec 11 13:52 Calm 10 Clear CLR 53 24     32%     30.14        
Dec 11 12:52 WNW 6 10 Clear CLR 50 28     42%     30.16 30.08      
Dec 11 11:52 WNW 6 10 Clear CLR 49 22     34% 46   30.16 30.1      
Dec 11 10:52 NW 3 10 Clear CLR 49 14     24% 48   30.18 30.11      
Dec 11 09:52 NE 3 10 Clear CLR 51        %     30.18        
Dec 11 08:52 5 10 Clear CLR 45 10     24% 43   30.17        
Dec 11 07:52 NE 8 10 Clear CLR 41 13     31% 36   30.17        
Dec 11 06:52 NE 8 10 Clear CLR 37 18     46% 31   30.17 30.14      
Dec 11 05:52 NE 8 10 Clear CLR 37 20     50% 31   30.16 30.14      
Dec 11 04:52 NE 8 10 Clear CLR 37 21     52% 31   30.16        
Dec 10 19:52 NE 7 10 Clear CLR 39 28     64% 34   30.16        
Dec 10 18:52 NE 8 10 Clear CLR 39 29     67% 33   30.16        
Dec 10 16:52 WNW 5 10 Clear CLR 41 36     82% 38   30.16 30.11      
Dec 10 14:52 Calm 10 Clear CLR 47 31     53%     30.15        
Dec 10 12:52 Calm 10 Mostly Cloudy FEW042 BKN080 44 28     53%     30.17 30.11      
Dec 10 12:34 Calm 10 Mostly Cloudy SCT021 BKN042 BKN080 43 27     53%     30.17        
Dec 10 12:20 5 10 Mostly Cloudy BKN022 44 27     51% 41   30.18        
Dec 10 11:52 Calm 10 Mostly Cloudy FEW020 SCT043 BKN090 43 26     51%     30.19 30.15      
Dec 10 11:32 3 10 Cloudy FEW021 SCT027 OVC045 43 25     49% 41   30.2        
Dec 10 10:52 NNE 3 10 Cloudy OVC024 42 23     46% 40   30.22 30.18      
Dec 10 10:31 NNW 6 10 Cloudy BKN025 OVC030 43 20     39% 39   30.23        
Dec 10 09:52 Calm 10 Cloudy BKN034 OVC075 44 18     35%     30.22 30.18      
Dec 10 08:52 ENE 3 10 Cloudy OVC035 41 19     41% 39   30.21 30.18      
Dec 10 07:52 Calm 10 Cloudy SCT050 BKN070 OVC080 42 18     37%     30.21        
Dec 10 06:52 Calm 10 Cloudy BKN042 OVC055 41 18     39%     30.2        
Dec 10 05:52 Calm 10 Cloudy BKN046 OVC060 40 17     39%     30.21 30.17      
Dec 10 04:52 ESE 3 10 Cloudy OVC047 41 16     36% 39   30.21 30.16      
Dec 10 03:52 ESE 3 10 Mostly Cloudy BKN043 39 19     44% 37   30.21        
Dec 10 02:52 ESE 3 10 Mostly Cloudy BKN060 40 22     48% 38   30.23        
Dec 10 01:52 ESE 5 10 Clear CLR 39 25     57% 36   30.24 30.19      
Dec 10 00:52 SE 6 10 Clear CLR 39 24     55% 35   30.25        
Dec 09 23:52 ESE 5 10 Mostly Cloudy BKN110 39 24     55% 36   30.26        
Dec 09 22:52 ESE 5 10 Mostly Cloudy BKN100 38 25     59% 34   30.27        
Dec 09 21:52 S 5 10 Partly Cloudy SCT100 38 25     59% 34   30.28        
Dec 09 20:52 SE 3 10 Clear CLR 39 23     52% 37   30.27        
Dec 09 19:52 SE 6 10 Clear CLR 41 19     41% 37   30.27        
Dec 09 18:52 SE 3 10 Clear CLR 40 19     43% 38   30.27        
Dec 09 17:52 ESE 5 10 Clear CLR 40 24     53% 37   30.27        
Dec 09 16:52 S 3 10 Clear CLR 41 25     53% 39   30.29        
Dec 09 15:52 SE 5 10 Cloudy OVC100 44 22     41% 41   30.28        
Dec 09 14:52 Calm 10 Partly Cloudy SCT110 45 23     42%     30.29        
Dec 09 12:52 SSE 7 10 Clear   46 23     40% 42   30.33        
May 14 21:52 Calm 10 Clear CLR 51 47     86%     30.05 29.89      
May 14 10:52 7 10 Mostly Clear FEW055 60 34     37%     30.06 29.89      
May 13 09:52 Calm 10 Clear   54 39     57%     30.06 29.92      
May 12 18:52 5 10 Cloudy OVC090 53 38     56%     29.98 29.86      
May 11 21:52 7 10 Clear CLR 47 25     42% 44   29.92 29.79      
May 11 17:52 NNE 10 10 Clear CLR 56 20     24%     29.91 29.75      
May 11 15:52 NNE 10 10 Clear CLR 57 17     21%     29.91 29.75      
Jun 12 01:33 SSE 3 1.25 Light Snow and Fog/Mist BKN003 OVC007 33 33     100% 30   29.96   0    
Jun 12 01:18 SSW 3 2.5 Light Snow and Fog/Mist OVC004 33 33     100% 30   29.96   0    
Jun 11 17:08 6 5 Fog/Mist SCT004 BKN013 OVC034 36 35     96% 31   29.93   0    
Jun 11 15:52 W 7 2.5 Light Snow and Fog/Mist FEW010 BKN018 OVC049 36 34     92% 30   29.94 29.91 0    
Jun 11 13:02   10 Mostly Cloudy FEW022 SCT029 BKN050 42 32     67%     29.9        
Jun 11 12:52 SSW 10 10 Clear   42 31     64% 36   29.9 29.84      
Jun 11 09:59 5 10 Cloudy FEW019 BKN028 OVC035 40 33     76% 37            
Jun 11 09:42 S 9 10 Mostly Cloudy FEW020 BKN028 BKN034 39 33     79% 33   29.87        
Jun 11 04:52 5 2.5 Fog/Mist OVC002 38 38     100% 34     29.78      
Jun 11 02:52 S 6 0.75 Fog/Mist VV002 39 39     100% 35     29.79      
Jun 11 00:43 S 7 1.25 Fog/Mist OVC002 40 40     100% 35   29.91        
Jun 10 22:52 S 9 10 Cloudy OVC005 42 41     96% 37   29.93 29.83      
Jun 10 03:00 SSE 11 3 Fog/Mist BKN002 OVC009 44 44     100% 38   29.95        
Jun 10 02:14 SSE 10 1.25 Fog/Mist OVC002 44 44     100% 39   29.97        
Jun 09 21:27 S 9 1.75 Fog/Mist BKN002 BKN006 OVC016 47 46     97% 43   29.99        
Jun 09 18:52 SSW 11 10 Cloudy SCT007 BKN010 OVC017 49 47     93% 44     29.87      
Jun 09 13:52 SW 10 0.25 Clear   48 48     100% 43   30.01 29.91 0    
Jun 09 10:52 SSW 9 0.25 Fog VV002 47 47     100% 43   30 29.91     0
Jun 09 06:35 S 9 0.25 Fog VV002 46 46     100% 41   30.01        
Jun 09 05:52 S 7 0.25 Fog VV001 46 46     100% 42   30.01 29.91      
Jun 09 03:52 S 6 0.25 Fog VV002 46 46     100% 43   30.03 29.94      
Jun 09 02:52 S 7 0.5 Fog VV002 46 46     100% 42   30.04 29.95      
Notice The following observation data may not be complete
Jun 09 02:08   1.5 Fog/Mist OVC002          %              
Jun 09 01:48 SSW 5 0.75 Fog/Mist VV002 46 46     100% 44   30.05        
Jun 08 18:52 S 7 0.25 Fog VV002 48 48     100% 45   30.09 29.99      
Notice The following observation data may not be complete
Jun 08 17:42   1.25 Fog/Mist OVC002          %              
Jun 08 11:52   1.75 Light Rain and Fog/Mist SCT006 BKN010 OVC021 43 42     97%     30.12 30.02 0    
Notice The following observation data may not be complete
Jun 08 11:20   2 Rain and Fog/Mist FEW005 SCT012 OVC021          %         0    
Jun 07 23:52 SE 7 10 Clear CLR 51 39     63%       29.83      
Jun 07 22:52 SE 7 10 Clear CLR 51 40     65%     30.05 29.85      
Jun 07 20:52 S 8 10 Clear CLR 57 38     49%     30.04 29.82      
Jun 05 21:52 Calm 10 Clear CLR 59 32     36%       29.87